sat.trackr.live / text

‹ back to catalog

2023-104C

NORAD 57426 · 2023-104C

PAYLOAD ACTIVE UNKNOWN

§ Identity

Operator
Country
PRC
Launch date
2023-07-23
Launch site
TAISC
Launch vehicle
Mass (kg)
RCS (m²)

External: N2YO · Heavens-Above · Gunter

§ Orbital elements

Epoch: 2026-05-25T04:14:55.214880Z

Period
94.19 min
Inclination
97.2634°
Eccentricity
0.0013080
Mean motion
15.28795481 rev/d
Perigee alt
470.4 km
Apogee alt
488.4 km
Semi-major
6,857.5 km
B*
4.7078e-4
RAAN
209.6767°
Arg perigee
88.9171°
Mean anomaly
271.3567°
Rev number
15,827

§ Raw data

2023-104C1 57426U 23104C   26145.17702795  .00013144  00000+0  47078-3 0  99912 57426  97.2634 209.6767 0013080  88.9171 271.3567 15.28795481158274

JSON: /api/v1/satellites/57426 · /tle

For live sub-satellite position, see the globe view (requires WebGL).

§ Visibility from observer

Set your observer location to see the next 7 days of passes ≥ 10°. The values pass through the URL so the page stays shareable.

No JS? Fill the form by hand. The geolocation button needs JavaScript.